DW1684 Weather Reports


time (UTC)temp
C
wind
direction
speed
KPH
gust
KPH
rain 1hr
cm
rain 24hr
cm
rain mn
cm
humidity
%
barometer
mb
20260509023823 12 249 0.0 1.6 0.00 0.00 0.00 90 1008.4
20260509023333 12 249 0.0 0.0 0.00 0.00 0.00 89 1008.3
20260509022845 12 249 0.0 0.0 0.00 0.00 0.00 90 1008.4
20260509022317 12 249 0.0 3.2 0.00 0.00 0.00 89 1008.4
20260509021831 12 249 0.0 3.2 0.00 0.00 0.00 89 1008.3
20260509021322 12 253 0.0 3.2 0.00 0.00 0.00 89 1008.4
20260509020833 12 253 0.0 3.2 0.00 0.00 0.00 89 1008.4
20260509020326 12 256 0.0 3.2 0.00 0.00 0.00 89 1008.4
20260509015845 13 247 0.0 3.2 0.00 0.00 0.00 88 1008.4
20260509015337 13 256 0.0 3.2 0.00 0.00 0.00 88 1008.3
20260509014827 13 191 0.0 3.2 0.00 0.00 0.00 88 1008.3
20260509014318 13 184 0.0 3.2 0.00 0.00 0.00 88 1008.3
20260509013851 13 206 0.0 6.4 0.00 0.00 0.00 88 1008.3
20260509013323 13 190 1.6 6.4 0.00 0.00 0.00 88 1008.2
20260509012817 13 270 3.2 6.4 0.00 0.00 0.00 87 1008.2
20260509012331 13 149 1.6 6.4 0.00 0.00 0.00 87 1008.1
20260509011822 13 208 1.6 8.0 0.00 0.00 0.00 87 1008.1
20260509011317 13 232 0.0 8.0 0.00 0.00 0.00 87 1008.0
20260509010832 13 209 1.6 8.0 0.00 0.00 0.00 86 1007.9
20260509010322 13 230 1.6 4.8 0.00 0.00 0.00 86 1007.9
20260509005833 13 230 0.0 4.8 0.00 0.00 0.00 86 1007.9
20260509005324 13 222 1.6 8.0 0.00 0.00 0.00 86 1007.9
20260509004855 13 280 1.6 8.0 0.00 0.00 0.00 86 1007.8
20260509004325 13 252 1.6 4.8 0.00 0.00 0.00 86 1007.9
20260509003817 13 6 1.6 6.4 0.00 0.00 0.00 85 1007.9
20260509003347 14 256 1.6 6.4 0.00 0.00 0.00 85 1007.9
20260509002820 14 204 1.6 9.7 0.00 0.00 0.00 85 1007.8
20260509002318 14 253 3.2 9.7 0.00 0.00 0.00 84 1007.8
20260509001849 14 224 3.2 9.7 0.00 0.00 0.00 84 1007.8
20260509001319 15 318 3.2 9.7 0.00 0.00 0.00 84 1007.8
20260509000830 15 246 1.6 9.7 0.00 0.00 0.00 84 1007.8
20260509000341 15 251 1.6 8.0 0.00 0.00 0.00 83 1007.8
20260508235814 15 166 1.6 9.7 0.00 0.00 0.00 82 1007.8
20260508235348 15 270 3.2 9.7 0.00 0.00 0.00 82 1007.8
20260508234818 15 266 4.8 8.0 0.00 0.00 0.00 81 1007.9
20260508234329 15 269 3.2 8.0 0.00 0.00 0.00 81 1007.9
20260508233825 15 176 3.2 11.3 0.00 0.00 0.00 81 1007.9
20260508233319 15 243 6.4 11.3 0.00 0.00 0.00 80 1007.9
20260508232830 15 224 4.8 11.3 0.00 0.00 0.00 80 1007.8
20260508232321 15 239 3.2 16.1 0.00 0.00 0.00 81 1007.8
20260508231832 15 246 6.4 17.7 0.00 0.00 0.00 81 1007.9
20260508231326 15 279 8.0 17.7 0.00 0.00 0.00 81 1007.9
20260508230842 15 258 4.8 12.9 0.00 0.00 0.00 82 1008.0
20260508230317 15 239 1.6 16.1 0.00 0.00 0.00 82 1008.0
20260508225831 15 185 4.8 16.1 0.00 0.00 0.00 81 1008.0
20260508225326 15 206 6.4 16.1 0.00 0.00 0.00 80 1008.1
20260508224840 15 239 6.4 14.5 0.00 0.00 0.00 80 1008.0
20260508224330 15 243 4.8 16.1 0.00 0.00 0.00 80 1008.1
20260508223843 15 255 4.8 16.1 0.00 0.00 0.00 79 1008.0
20260508223332 15 259 6.4 14.5 0.00 0.00 0.00 78 1008.0
20260508222826 15 44 4.8 19.3 0.00 0.00 0.00 78 1008.0
20260508222320 15 229 9.7 19.3 0.00 0.00 0.00 78 1007.9
20260508221854 15 254 4.8 17.7 0.00 0.00 0.00 79 1007.9
20260508221324 15 291 4.8 9.7 0.00 0.00 0.00 79 1008.0
20260508220814 15 260 4.8 9.7 0.00 0.00 0.00 80 1008.0
20260508220351 15 249 4.8 11.3 0.00 0.00 0.00 79 1008.0
20260508215825 15 289 6.4 11.3 0.00 0.00 0.00 79 1008.1
20260508215316 15 255 3.2 11.3 0.00 0.00 0.00 79 1008.0
20260508214827 15 264 4.8 11.3 0.00 0.00 0.00 79 1008.1
20260508214318 15 243 4.8 14.5 0.00 0.00 0.00 79 1008.2
20260508213829 15 296 6.4 14.5 0.00 0.00 0.00 78 1008.2
20260508213346 15 295 6.4 11.3 0.00 0.00 0.00 77 1008.2
20260508212816 15 259 3.2 11.3 0.00 0.00 0.00 77 1008.2
20260508212327 15 253 4.8 12.9 0.00 0.00 0.00 78 1008.3
20260508211822 15 248 4.8 12.9 0.00 0.00 0.00 77 1008.3
20260508211333 15 183 4.8 14.5 0.00 0.00 0.00 77 1008.2
20260508210846 15 235 3.2 14.5 0.00 0.00 0.00 77 1008.2
20260508210335 15 335 6.4 14.5 0.00 0.00 0.00 76 1008.1
20260508205828 15 235 4.8 17.7 0.00 0.00 0.00 76 1008.2
20260508205319 15 248 8.0 17.7 0.00 0.00 0.00 74 1008.3
20260508204830 16 291 6.4 14.5 0.00 0.00 0.00 75 1008.4
20260508204321 16 244 3.2 6.4 0.00 0.00 0.00 78 1008.4
20260508203833 15 227 1.6 6.4 0.00 0.00 0.00 78 1008.4
20260508203324 15 151 1.6 4.8 0.00 0.00 0.00 78 1008.5
20260508202839 15 181 1.6 4.8 0.00 0.00 0.00 78 1008.7
20260508202329 15 160 0.0 6.4 0.00 0.00 0.00 77 1008.8
20260508201846 15 174 1.6 8.0 0.00 0.00 0.00 76 1008.8
20260508201316 16 177 1.6 8.0 0.00 0.00 0.00 75 1008.9
20260508200827 16 244 3.2 6.4 0.00 0.00 0.00 75 1009.0
20260508200338 16 151 1.6 3.2 0.00 0.00 0.00 78 1009.0
20260508195830 16 265 1.6 3.2 0.00 0.00 0.00 77 1009.1
20260508195323 15 139 1.6 6.4 0.00 0.00 0.00 78 1009.1
20260508194837 15 162 1.6 6.4 0.00 0.00 0.00 79 1009.2
20260508194327 15 255 3.2 6.4 0.00 0.00 0.00 79 1009.3
20260508193820 15 174 1.6 3.2 0.00 0.00 0.00 79 1009.4
20260508193330 15 274 1.6 6.4 0.00 0.00 0.00 79 1009.4
20260508192825 15 201 1.6 6.4 0.00 0.00 0.00 79 1009.5
20260508192316 15 145 1.6 3.2 0.00 0.00 0.00 82 1009.6
20260508191827 14 172 1.6 3.2 0.00 0.00 0.00 84 1009.6
20260508191319 14 196 1.6 3.2 0.00 0.00 0.00 83 1009.7
20260508190829 13 96 0.0 3.2 0.00 0.00 0.00 84 1009.9
20260508190326 13 334 1.6 3.2 0.00 0.00 0.00 85 1010.1
20260508185820 13 324 0.0 3.2 0.00 0.00 0.00 85 1010.3
20260508185318 13 180 0.0 1.6 0.00 0.00 0.00 85 1010.3
20260508184829 13 183 0.0 3.2 0.00 0.00 0.00 85 1010.3
20260508184323 13 183 1.6 3.2 0.00 0.00 0.00 86 1010.4
20260508183817 13 193 0.0 3.2 0.00 0.00 0.00 86 1010.5
20260508183334 13 156 1.6 3.2 0.00 0.00 0.00 87 1010.5
20260508182825 13 160 0.0 3.2 0.00 0.00 0.00 86 1010.5
20260508182316 13 257 1.6 3.2 0.00 0.00 0.00 86 1010.7
20260508181847 13 152 0.0 3.2 0.00 0.00 0.00 86 1010.7
20260508181320 12 106 1.6 3.2 0.00 0.00 0.00 86 1010.7
20260508180818 12 130 0.0 3.2 0.00 0.00 0.00 87 1010.7
20260508180329 12 199 0.0 3.2 0.00 0.00 0.00 87 1010.7
20260508175823 12 160 1.6 3.2 0.00 0.00 0.00 86 1010.7
20260508175336 12 189 1.6 3.2 0.00 0.00 0.00 87 1010.8
20260508174827 12 147 1.6 3.2 0.00 0.00 0.00 87 1010.8
20260508174321 12 240 1.6 3.2 0.00 0.00 0.00 87 1011.0
20260508173833 12 178 1.6 3.2 0.00 0.00 0.00 87 1011.1
20260508173324 12 260 0.0 3.2 0.00 0.00 0.00 87 1011.1
20260508172819 12 215 0.0 3.2 0.00 0.00 0.00 87 1011.2
20260508172330 12 249 1.6 3.2 0.00 0.00 0.00 86 1011.5
20260508171821 12 131 0.0 4.8 0.00 0.00 0.00 87 1011.3
20260508171332 12 229 0.0 4.8 0.00 0.00 0.00 87 1011.4
20260508170827 12 153 1.6 4.8 0.00 0.00 0.00 87 1011.5
20260508170318 12 242 1.6 3.2 0.00 0.00 0.00 87 1011.6
20260508165832 12 110 1.6 4.8 0.00 0.00 0.00 87 1011.6
20260508165326 12 236 1.6 6.4 0.00 0.00 0.00 86 1011.6
20260508164824 12 257 3.2 6.4 0.00 0.00 0.00 86 1011.7
20260508164355 12 249 3.2 9.7 0.00 0.00 0.00 86 1011.8
20260508163826 12 170 1.6 9.7 0.00 0.00 0.00 86 1011.9
20260508163320 12 251 3.2 11.3 0.00 0.00 0.00 86 1012.0
20260508162814 12 241 3.2 11.3 0.00 0.00 0.00 86 1012.1
20260508162328 12 262 3.2 8.0 0.00 0.00 0.00 86 1012.0
20260508161819 12 307 1.6 9.7 0.00 0.00 0.00 87 1012.1
20260508161330 12 174 3.2 11.3 0.00 0.00 0.00 87 1012.1
20260508160822 12 226 4.8 12.9 0.00 0.00 0.00 86 1012.1
20260508160317 12 234 4.8 12.9 0.00 0.00 0.00 87 1012.1
20260508155828 12 250 4.8 11.3 0.00 0.00 0.00 87 1012.0
20260508155339 12 239 3.2 11.3 0.00 0.00 0.00 88 1012.0
20260508154829 12 278 3.2 9.7 0.00 0.00 0.00 89 1012.1
20260508154323 12 237 4.8 9.7 0.00 0.00 0.00 89 1012.0
20260508153817 12 255 4.8 11.3 0.00 0.00 0.00 88 1012.0
20260508153354 12 254 6.4 11.3 0.00 0.00 0.00 89 1011.8
20260508152824 12 247 1.6 9.7 0.00 0.00 0.00 90 1011.8
20260508152334 12 245 3.2 9.7 0.00 0.00 0.00 91 1011.9
20260508151845 12 166 3.2 12.9 0.00 0.00 0.00 92 1011.9
20260508151319 11 249 8.0 12.9 0.00 0.00 0.00 90 1011.9
20260508150851 11 274 4.8 11.3 0.00 0.00 0.00 91 1011.9
20260508150321 11 179 3.2 9.7 0.00 0.00 0.00 91 1012.0
20260508145832 11 233 3.2 6.4 0.00 0.00 0.00 92 1012.1
20260508145326 11 251 3.2 6.4 0.00 0.00 0.00 93 1012.1
20260508144820 11 209 1.6 6.4 0.00 0.00 0.00 93 1012.0
20260508144334 11 278 1.6 6.4 0.00 0.00 0.00 94 1012.0
20260508143826 11 258 1.6 6.4 0.00 0.00 0.00 94 1012.1
20260508143320 10 288 1.6 4.8 0.00 0.00 0.00 94 1012.3
20260508142817 10 235 1.6 4.8 0.00 0.00 0.00 93 1012.4
20260508142349 10 235 3.2 4.8 0.00 0.00 0.00 93 1012.4
20260508141819 10 245 1.6 6.4 0.00 0.00 0.00 92 1012.4
20260508141330 10 226 1.6 9.7 0.00 0.00 0.00 92 1012.6
20260508140822 10 229 4.8 9.7 0.00 0.00 0.00 92 1012.7
20260508140332 10 262 4.8 9.7 0.00 0.00 0.00 91 1012.8
20260508135824 10 234 4.8 6.4 0.00 0.00 0.00 91 1012.8
20260508135335 10 14 1.6 6.4 0.00 0.00 0.00 91 1012.7
20260508134827 10 235 3.2 6.4 0.00 0.00 0.00 91 1012.7
20260508134323 10 249 1.6 6.4 0.00 0.00 0.00 91 1012.6
20260508133818 10 243 3.2 6.4 0.00 0.00 0.00 91 1012.6
20260508133329 10 261 3.2 6.4 0.00 0.00 0.00 90 1012.7
20260508132823 10 272 1.6 6.4 0.00 0.00 0.00 90 1012.3
20260508132317 10 255 0.0 6.4 0.00 0.00 0.00 90 1012.3
20260508131831 10 262 1.6 8.0 0.00 0.00 0.00 90 1012.5
20260508131321 10 252 3.2 8.0 0.00 0.00 0.00 90 1012.5
20260508130814 10 267 3.2 6.4 0.00 0.00 0.00 90 1012.5
20260508130331 10 243 3.2 4.8 0.00 0.00 0.00 90 1012.5
20260508125826 10 249 1.6 4.8 0.00 0.00 0.00 90 1012.4
20260508125319 10 250 1.6 4.8 0.00 0.00 0.00 90 1012.2
20260508124814 10 237 1.6 4.8 0.00 0.00 0.00 90 1012.3
20260508124328 10 255 3.2 4.8 0.00 0.00 0.00 90 1012.3
20260508123820 10 241 0.0 9.7 0.00 0.00 0.00 90 1012.3
20260508123314 9 300 1.6 9.7 0.00 0.00 0.00 90 1012.4
20260508122828 9 253 1.6 6.4 0.00 0.00 0.00 90 1012.5
20260508122343 9 251 3.2 6.4 0.00 0.00 0.00 90 1012.4
20260508121853 9 252 3.2 8.0 0.00 0.00 0.00 90 1012.4
20260508121325 9 263 3.2 8.0 0.00 0.00 0.00 90 1012.3
20260508120821 9 233 0.0 8.0 0.00 0.00 0.00 90 1012.2
20260508120332 9 244 3.2 8.0 0.00 0.00 0.00 91 1012.2
20260508115826 9 237 4.8 9.7 0.00 0.00 0.00 91 1012.1
20260508115320 8 285 4.8 9.7 0.00 0.00 0.00 91 1012.1
20260508114814 8 285 3.2 9.7 0.00 0.00 0.00 92 1012.1
20260508114328 8 226 3.2 8.0 0.00 0.00 0.00 93 1012.0
20260508113824 8 252 1.6 8.0 0.00 0.00 0.00 93 1012.0
20260508113354 8 268 3.2 8.0 0.00 0.00 0.00 93 1012.1
20260508112824 8 227 1.6 4.8 0.00 0.00 0.00 93 1012.0
20260508112335 8 245 1.6 4.8 0.00 0.00 0.00 93 1012.0
20260508111826 7 240 1.6 4.8 0.00 0.00 0.00 93 1012.0
20260508111317 7 251 1.6 4.8 0.00 0.00 0.00 93 1012.0
20260508110829 7 236 1.6 4.8 0.00 0.00 0.00 92 1012.0
20260508110346 7 252 0.0 6.4 0.00 0.00 0.00 92 1012.0
20260508105836 7 328 0.0 6.4 0.00 0.00 0.00 92 1012.0
20260508105331 7 286 1.6 6.4 0.00 0.00 0.00 92 1012.0
20260508104821 7 312 0.0 1.6 0.00 0.00 0.00 92 1012.0
20260508104353 7 308 0.0 1.6 0.00 0.00 0.00 92 1011.9
20260508103827 8 311 0.0 1.6 0.00 0.00 0.00 92 1011.9
20260508103337 8 286 0.0 1.6 0.00 0.00 0.00 91 1011.8
20260508102851 8 287 0.0 4.8 0.00 0.00 0.00 91 1011.9
20260508102320 8 312 0.0 6.4 0.00 0.00 0.00 91 1011.9
20260508101831 8 295 3.2 6.4 0.00 0.00 0.00 91 1011.8
20260508101325 8 261 3.2 4.8 0.00 0.00 0.00 91 1011.7
20260508100821 8 272 1.6 4.8 0.00 0.00 0.00 91 1011.6
20260508100335 8 299 0.0 4.8 0.00 0.00 0.00 91 1011.5
20260508095827 8 249 1.6 4.8 0.00 0.00 0.00 91 1011.6
20260508095317 8 248 1.6 6.4 0.00 0.00 0.00 91 1011.7
20260508094828 8 271 1.6 9.7 0.00 0.00 0.00 91 1011.7
20260508094322 8 318 3.2 9.7 0.00 0.00 0.00 92 1011.7
20260508093818 8 197 1.6 8.0 0.00 0.00 0.00 92 1011.7
20260508093329 8 278 3.2 11.3 0.00 0.00 0.00 92 1011.8
20260508092842 8 285 3.2 11.3 0.00 0.00 0.00 93 1011.9
20260508092317 7 237 4.8 9.7 0.00 0.00 0.00 93 1011.8
20260508091830 7 310 1.6 4.8 0.00 0.00 0.00 93 1011.9
20260508091321 7 241 1.6 6.4 0.00 0.00 0.00 94 1011.8
20260508090834 7 253 1.6 6.4 0.00 0.00 0.00 94 1011.9
20260508090325 7 295 1.6 8.0 0.00 0.00 0.00 94 1011.9
20260508085835 7 283 3.2 8.0 0.00 0.00 0.00 94 1011.9
20260508085326 7 258 1.6 4.8 0.00 0.00 0.00 94 1011.9
20260508084817 7 255 0.0 4.8 0.00 0.00 0.00 94 1011.9
20260508084328 7 228 1.6 4.8 0.00 0.00 0.00 94 1011.9
20260508083828 7 250 1.6 4.8 0.00 0.00 0.00 94 1011.9
20260508083339 7 260 0.0 3.2 0.00 0.00 0.00 94 1011.9
20260508082828 7 260 1.6 3.2 0.00 0.00 0.00 94 1011.9
20260508082319 7 247 0.0 3.2 0.00 0.00 0.00 94 1011.9
20260508081831 7 243 1.6 8.0 0.00 0.00 0.00 94 1012.0
20260508081321 7 259 0.0 8.0 0.00 0.00 0.00 94 1011.9
20260508080855 7 263 1.6 3.2 0.00 0.00 0.00 94 1012.0
20260508080324 7 268 0.0 4.8 0.00 0.00 0.00 94 1012.0
20260508075835 7 273 1.6 4.8 0.00 0.00 0.00 95 1012.0
20260508075325 7 297 1.6 3.2 0.00 0.00 0.00 95 1012.0
20260508074820 7 268 0.0 4.8 0.00 0.00 0.00 95 1012.0
20260508074331 7 257 0.0 4.8 0.00 0.00 0.00 95 1012.0
20260508073824 7 262 0.0 3.2 0.00 0.00 0.00 95 1011.9
20260508073334 7 259 0.0 6.4 0.00 0.00 0.00 95 1011.9
20260508072825 7 302 1.6 6.4 0.00 0.00 0.00 96 1011.9
20260508072316 6 275 0.0 3.2 0.00 0.00 0.00 96 1011.9
20260508071830 6 274 1.6 6.4 0.00 0.00 0.00 95 1011.8
20260508071321 6 236 0.0 6.4 0.00 0.00 0.00 96 1011.8
20260508070839 6 241 1.6 6.4 0.00 0.00 0.00 96 1011.8
20260508065847 6 265 1.6 4.8 0.00 0.00 0.00 96 1011.9
20260508065321 6 250 0.0 4.8 0.00 0.00 0.00 96 1011.9
20260508064832 6 273 1.6 4.8 0.00 0.00 0.00 96 1011.9
20260508064323 6 270 0.0 4.8 0.00 0.00 0.00 96 1012.0
20260508063836 6 282 0.0 3.2 0.00 0.00 0.00 96 1012.0
20260508063326 6 229 0.0 3.2 0.00 0.00 0.00 96 1012.0
20260508062817 6 218 0.0 1.6 0.00 0.00 0.00 96 1012.0
20260508062328 6 248 0.0 3.2 0.00 0.00 0.00 96 1012.1
20260508061819 6 249 0.0 3.2 0.00 0.00 0.00 96 1012.0
20260508061334 6 255 1.6 3.2 0.00 0.00 0.00 96 1012.1
20260508060848 6 236 0.0 3.2 0.00 0.00 0.00 96 1012.2
20260508060317 6 242 1.6 3.2 0.00 0.00 0.00 96 1012.2
20260508055828 6 167 0.0 1.6 0.00 0.00 0.00 95 1012.3
20260508055319 6 163 0.0 1.6 0.00 0.00 0.00 96 1012.3
20260508054830 6 163 0.0 3.2 0.00 0.00 0.00 96 1012.3
20260508054321 6 163 0.0 3.2 0.00 0.00 0.00 96 1012.4
20260508053814 6 228 0.0 3.2 0.00 0.00 0.00 95 1012.4
20260508053327 6 232 0.0 3.2 0.00 0.00 0.00 95 1012.3
20260508052822 6 141 0.0 1.6 0.00 0.00 0.00 95 1012.3
20260508052333 6 141 0.0 1.6 0.00 0.00 0.00 95 1012.4
20260508051824 6 141 0.0 1.6 0.00 0.00 0.00 95 1012.4
20260508051335 6 141 0.0 1.6 0.00 0.00 0.00 95 1012.4
20260508050849 6 141 0.0 1.6 0.00 0.00 0.00 95 1012.5
20260508050318 6 141 0.0 1.6 0.00 0.00 0.00 95 1012.4
20260508045829 6 141 0.0 1.6 0.00 0.00 0.00 95 1012.4
20260508045320 6 141 0.0 0.0 0.00 0.00 0.00 95 1012.4
20260508044831 6 141 0.0 1.6 0.00 0.00 0.00 95 1012.4
20260508044326 6 141 0.0 1.6 0.00 0.00 0.00 95 1012.5
20260508043819 6 143 0.0 1.6 0.00 0.00 0.00 95 1012.5
20260508043349 6 143 0.0 1.6 0.00 0.00 0.00 95 1012.4
20260508042819 7 143 0.0 3.2 0.00 0.00 0.00 95 1012.4
20260508042313 7 143 1.6 3.2 0.00 0.00 0.00 95 1012.4
20260508041847 7 150 0.0 3.2 0.00 0.00 0.00 95 1012.4
20260508041317 7 150 0.0 1.6 0.00 0.00 0.00 94 1012.4
20260508040830 7 150 0.0 3.2 0.00 0.00 0.00 95 1012.4
20260508040323 7 150 1.6 3.2 0.00 0.00 0.00 95 1012.4
20260508035818 7 150 0.0 1.6 0.00 0.00 0.00 95 1012.4
20260508035329 7 150 0.0 3.2 0.00 0.00 0.00 95 1012.4
20260508034840 7 150 0.0 3.2 0.00 0.00 0.00 95 1012.4
20260508034355 7 150 0.0 3.2 0.00 0.00 0.00 94 1012.4
20260508033826 7 150 0.0 3.2 0.00 0.00 0.00 94 1012.4
20260508033316 7 151 0.0 3.2 0.00 0.00 0.00 94 1012.4
20260508032830 7 151 1.6 3.2 0.00 0.00 0.00 94 1012.4
20260508032321 7 147 1.6 3.2 0.00 0.00 0.00 94 1012.5
20260508031832 7 151 1.6 3.2 0.00 0.00 0.00 94 1012.5
20260508031327 7 106 0.0 1.6 0.00 0.00 0.00 94 1012.7
20260508030820 7 106 0.0 3.2 0.00 0.00 0.00 94 1012.7
20260508030313 7 142 1.6 3.2 0.00 0.00 0.00 94 1012.7
20260508025847 7 142 1.6 3.2 0.00 0.00 0.00 93 1012.7
20260508025337 7 133 0.0 1.6 0.00 0.00 0.00 93 1012.7
20260508024830 7 133 1.6 1.6 0.00 0.00 0.00 93 1012.8
20260508024321 7 133 0.0 3.2 0.00 0.00 0.00 93 1012.7